THOR AGENA B R/B, 741

Orbit data source: Space-Track

THOR AGENA B R/B, 741 is space debris in LEO originally from a launch on Sat, 25 Jan 1964 UTC launched from the Air Force Western Test Range (AFWTR). Debris objects in space refer to the collection of defunct objects orbiting the Earth. Examples of debris include non-operational satellites, rocket bodies, and fragments generated from explosions, collisions, or faulty payload assembly.

Loading next visibility...
Identifier
741, 1964-004B
Orbit
LEO
Country
Flag of USUS
Related business
Manufacturer
LMSC
Mission
Spacecraft
Bus & Motor
AGENA B, Unknown motor
Mass
~705 kg wet, 705 kg dry
Launch date (UTC)
1964-01-25 (62 years ago)
Launch vehicle
Unknown
Launch site
Air Force Western Test Range (AFWTR)
Object type
Payload
Rocket body
Debris
Shape & HBR
Unknown
Radar Cross Section
Large (>1 m²)

Expand to show TLE details & history
Last TLE update: 7 hours ago

TLE from 7 hours ago
0 THOR AGENA B R/B
1   741U 64004B   26035.16422617  .00000068  00000-0  12667-3 0  9990
2   741  81.4886 271.4560 0171218 217.0227 264.7013 13.23826912995468
Epoch: 2026-02-04T03:56Z
TLE epoch observation values (Epoch: 2026-02-04T03:56:29.141Z)
Latitude
59.23289°
Longitude
-116.48375°
Altitude
1,194.247 km
Speed
7.255 km/s
True Right ascension
05h 07m 53s
True Declination
59° 05' 25"
Sunlit
Object was in daylight at epoch
Visualization orbit readout
Latitude
Unknown
Longitude
Unknown
Altitude
Unknown
Speed
Unknown
Apparent Right ascension
Unknown
Apparent Declination
Unknown
Sunlit
N/A
Visualization observer readout
Local Sidereal Time
13:19:12
Azimuth
Unknown
Elevation
Unknown
Doppler factor
Unknown
Orbital elements
Apogee altitude
1,296.61 km
Perigee altitude
1,038.223 km
Semi-major axis
7,545.553 km
Eccentricity
0.01712
Inclination
81.4886°
RAAN
271.456°
Arg. of periapsis
217.0227°
True anomaly
262.7519°
Mean anomaly
264.7013°
Eccentric anomaly
263.72617°
Mean motion
3.31136 °/min
Orbital period
108.72 mins
BSTAR
0.00012667
Loading maneuver chart data...
Computing Atmospheric mass density...
Loading historical data...
Loading historical data...
Loading historical data...
Loading historical data...
Loading historical data...
Loading historical data...
Loading historical data...

Documentation

Showing up to 5 results
|